Weather History for Anoka County, MN

Change the Weather History Date:

Monday, August 19, 2013

  Actual Average Record
Temperature  
Mean Temperature 78 °F -  
Max Temperature 87 °F 76 °F 87 °F (2013)
Min Temperature 69 °F 57 °F 42 °F (2004)
Cooling Degree Days 13    
Growing Degree Days 28 (Base 50)    
Moisture  
Dew Point 63 °F    
Average Humidity 65    
Maximum Humidity 78    
Minimum Humidity 49    
Precipitation  
Precipitation 0.00 in - - ()
Sea Level Pressure  
Sea Level Pressure 29.97 in    
Wind  
Wind Speed 8 mph (South)    
Max Wind Speed 12 mph    
Max Gust Speed 17 mph    
Visibility 10 miles    
Events      
Averages and records for this station are not official NWS values.
T = Trace of Precipitation, MM = Missing Value Source: NWS Daily Summary

Daily Weather History Graph

Daily Weather History Graph

Search for Another Location

Airport:

Trip Planner

Search our weather history database for the weather conditions in past years. The results will help you decide how hot, cold, wet, or windy it might be!

Date:

Astronomy

Aug. 19, 2013 Rise Set
Actual Time 6:19 AM CDT 8:12 PM CDT
Civil Twilight 5:47 AM CDT 8:43 PM CDT
Nautical Twilight 5:09 AM CDT 9:22 PM CDT
Astronomical Twilight 4:26 AM CDT 10:04 PM CDT
Moon 7:03 PM CDT (8/19) 4:37 AM CDT (8/19)
Length of Visible Light 14h 56m
Length of Day
13h 53m
Waxing Gibbous, 97% of the Moon is Illuminated
Aug 19
Waxing Gibbous
Aug 20
Full
Aug 28
Last Quarter
Sep 5
New
Sep 12
First Quarter

Hourly Weather History & Observations

Time (CDT) Temp. Heat Index Dew Point Humidity Pressure Visibility Wind Dir Wind Speed Gust Speed Precip Events Conditions
12:14 AM 71.6 °F - 57.2 °F 60% 30.03 in 10.0 mi South 8.1 mph - N/A   Mostly Cloudy
12:34 AM 71.6 °F - 57.2 °F 60% 30.02 in 10.0 mi South 6.9 mph - N/A   Scattered Clouds
12:53 AM 69.8 °F - 59.0 °F 68% 30.02 in 10.0 mi South 5.8 mph - N/A   Scattered Clouds
1:14 AM 71.6 °F - 57.2 °F 60% 30.02 in 10.0 mi South 6.9 mph - N/A   Overcast
1:34 AM 73.4 °F - 57.2 °F 57% 30.02 in 10.0 mi SSW 8.1 mph - N/A   Overcast
1:54 AM 71.6 °F - 57.2 °F 60% 30.02 in 10.0 mi SSW 8.1 mph - N/A   Overcast
2:14 AM 71.6 °F - 59.0 °F 64% 30.01 in 10.0 mi South 8.1 mph - N/A   Mostly Cloudy
2:34 AM 71.6 °F - 57.2 °F 60% 30.00 in 10.0 mi South 9.2 mph - N/A   Scattered Clouds
2:54 AM 71.6 °F - 57.2 °F 60% 30.00 in 10.0 mi SSW 8.1 mph - N/A   Clear
3:14 AM 71.6 °F - 57.2 °F 60% 30.00 in 10.0 mi SSW 6.9 mph - N/A   Scattered Clouds
3:34 AM 71.6 °F - 59.0 °F 64% 30.00 in 10.0 mi SSW 8.1 mph - N/A   Mostly Cloudy
3:54 AM 71.6 °F - 59.0 °F 64% 30.00 in 10.0 mi SSW 6.9 mph - N/A   Mostly Cloudy
4:14 AM 71.6 °F - 59.0 °F 64% 30.00 in 10.0 mi South 8.1 mph - N/A   Scattered Clouds
4:33 AM 69.8 °F - 59.0 °F 68% 30.00 in 10.0 mi South 6.9 mph - N/A   Clear
4:54 AM 69.8 °F - 60.8 °F 73% 29.99 in 10.0 mi South 8.1 mph - N/A   Scattered Clouds
5:14 AM 69.8 °F - 60.8 °F 73% 29.98 in 10.0 mi South 6.9 mph - N/A   Scattered Clouds
5:33 AM 69.8 °F - 60.8 °F 73% 29.98 in 10.0 mi South 8.1 mph - N/A   Clear
5:54 AM 69.8 °F - 60.8 °F 73% 29.97 in 10.0 mi South 8.1 mph - N/A   Clear
6:13 AM 69.8 °F - 60.8 °F 73% 29.97 in 10.0 mi South 9.2 mph - N/A   Clear
6:34 AM 69.8 °F - 60.8 °F 73% 29.97 in 10.0 mi South 8.1 mph - N/A   Clear
6:50 AM 69.8 °F - 60.8 °F 73% 29.96 in 10.0 mi South 11.5 mph 16.1 mph N/A   Overcast
6:54 AM 69.8 °F - 60.8 °F 73% 29.97 in 10.0 mi SSW 11.5 mph 16.1 mph N/A   Clear
7:45 AM 71.6 °F - 60.8 °F 69% 29.97 in 10.0 mi SSW 8.1 mph - N/A   Mostly Cloudy
9:45 AM 75.2 °F - 64.4 °F 69% 29.97 in 10.0 mi South 11.5 mph - N/A   Scattered Clouds
10:45 AM 75.2 °F - 64.4 °F 69% 29.97 in 10.0 mi South 11.5 mph - N/A   Mostly Cloudy
11:45 AM 78.8 °F - 64.4 °F 61% 29.99 in 10.0 mi South 5.8 mph - N/A   Mostly Cloudy
12:45 PM 80.6 °F 82.3 °F 64.4 °F 58% 29.97 in 10.0 mi SSE 9.2 mph - N/A   Mostly Cloudy
1:45 PM 82.4 °F 84.6 °F 66.2 °F 58% 29.95 in 10.0 mi SSE 9.2 mph - N/A   Mostly Cloudy
2:45 PM 86.0 °F 88.2 °F 66.2 °F 51% 29.95 in 10.0 mi South 8.1 mph 17.3 mph N/A   Scattered Clouds
3:45 PM 87.8 °F 90.4 °F 66.2 °F 49% 29.94 in 10.0 mi SSW 10.4 mph 17.3 mph N/A   Scattered Clouds
4:45 PM 86.0 °F 88.2 °F 66.2 °F 51% 29.92 in 10.0 mi South 10.4 mph 17.3 mph N/A   Scattered Clouds
5:45 PM 86.0 °F 88.2 °F 66.2 °F 51% 29.91 in 10.0 mi South 10.4 mph 17.3 mph N/A   Scattered Clouds
7:45 PM 82.4 °F 85.4 °F 68.0 °F 62% 29.91 in 10.0 mi South 8.1 mph - N/A   Mostly Cloudy
8:45 PM 80.6 °F 83.2 °F 68.0 °F 65% 29.91 in 10.0 mi South 8.1 mph - N/A   Mostly Cloudy
9:13 PM 80.6 °F 83.2 °F 68.0 °F 65% 29.92 in 10.0 mi SSE 6.9 mph - N/A   Overcast
9:34 PM 80.6 °F 83.2 °F 68.0 °F 65% 29.92 in 10.0 mi South 8.1 mph - N/A   Mostly Cloudy
9:45 PM 80.6 °F 83.2 °F 68.0 °F 65% 29.92 in 10.0 mi South 8.1 mph - N/A   Mostly Cloudy
9:54 PM 78.8 °F - 68.0 °F 69% 29.92 in 10.0 mi SSE 9.2 mph - N/A   Scattered Clouds
10:14 PM 78.8 °F - 68.0 °F 69% 29.93 in 10.0 mi South 10.4 mph - N/A   Scattered Clouds
10:34 PM 78.8 °F - 68.0 °F 69% 29.93 in 10.0 mi SSE 8.1 mph - N/A   Scattered Clouds
10:54 PM 78.8 °F - 68.0 °F 69% 29.92 in 10.0 mi SSE 8.1 mph - N/A   Mostly Cloudy
11:14 PM 78.8 °F - 68.0 °F 69% 29.92 in 10.0 mi South 8.1 mph - N/A   Mostly Cloudy
11:34 PM 77.0 °F - 68.0 °F 74% 29.92 in 10.0 mi SSE 8.1 mph - N/A   Scattered Clouds
11:54 PM 75.2 °F - 68.0 °F 78% 29.92 in 10.0 mi SSE 8.1 mph - N/A   Clear